Location: Cogollal
(10.0582°N, 67.8466°W)
Time: 02:39:21
(UTC+00:00)

ARIANE 5 R/B - Pass Details

Date: 14 April 2024
Orbit: 497 x 17445 km, 6.8° (Epoch: 19 May)

Event Time Altitude Azimuth Distance (km) Brightness Sun altitude
Rises 07:41:48 0° 269° (W) 17,439 8.5 -38.8°
Enters shadow 07:49:23 - 269° (W) 16,103 8.2 -37.0°
Exits shadow 08:32:36 35° 263° (W) 4,620 5.3 -26.9°
Maximum altitude 08:41:14 74° 187° (S) 1,833 3.7 -24.9°
Drops below altitude 10° 08:47:07 10° 101° (E) 2,637 5.6 -23.5°
Sets 08:48:40 0° 99° (E) 3,243 6.3 -23.1°
